Regional Weather Roundup
Issued by NWS

Home | Current Version | Previous Version | Graphics & Text | Print | Product List | Glossary On
Versions: 1 2 3 4 5 6 7 8 9 10 11 12 13 14 15 16 17 18 19 20 21 22 23 24 25 26 27 28 29 30 31 32 33 34 35 36 37 38 39 40 41 42 43 44 45 46 47 48 49 50
463
ASUS43 KIND 211309
RWRIN

WEATHER ROUNDUP FOR INDIANA
NATIONAL WEATHER SERVICE INDIANAPOLIS IN
800 AM EST SUN JAN 21 2018

NOTE: "FAIR" INDICATES FEW OR NO CLOUDS BELOW 12,000 FEET WITH NO
SIGNIFICANT WEATHER AND/OR OBSTRUCTIONS TO VISIBILITY.

* - STATION DOES NOT REPORT WEATHER SUCH AS PRECIPITATION OR FOG.

+ - STATION NOT QUALITY CONTROLLED BY THE NATIONAL WEATHER SERVICE.
    USE DATA WITH CAUTION...ESPECIALLY DEWPOINT AND RELATIVE
    HUMIDITY OBSERVATIONS.

INZ001>003-010>013-019-020-211400-
NORTHWEST INDIANA

CITY           SKY/WX    TMP DP  RH WIND       PRES   REMARKS
GARY /AIRPORT/ CLOUDY    41  37  87 S3        30.01R
KNOX *+        CLOUDY    36  36 100 SE6       30.01S VSB 1/4 WCI  31
LA PORTE +     FOG       36  36  99 W3        30.01R VSB 1/4
MICHIGAN CITY+ CLOUDY    37  37 100 SW3       30.01S
MONTICELLO +   FOG       37  36  94 CALM      30.01S VSB 1/4
RENSSELAER +   FOG       37  36  93 SE5       30.01S VSB 1/4 WCI  34
VALPARAISO     FOG       38  38 100 SE6       30.00R VSB 1/4 WCI  33

$$

LMZ046-743>745-211400-
SOUTHERN LAKE MICHIGAN

STATION/POSITION TIME  TEMP    WIND        PRES    WAVE
                       AIR SEA DIR/SP/G            HT
                 (UTC) (F)     (DEG/KT/KT) (MB)    (FT)
BURNS HARBOR     1240   38     210/  7/  8 1016.3S
MICHIGAN CITY    1240   38     180/  5/  7   N/A

$$

INZ004-005-014>016-021>024-211400-
NORTH CENTRAL INDIANA

CITY           SKY/WX    TMP DP  RH WIND       PRES   REMARKS
GOSHEN         FOG       37  36  96 S12       30.02S VSB 1/2 WCI  29
LOGANSPORT +   FOG       36  36 100 SE5       30.03F VSB<1/4 WCI  32
PERU/GRISSOM   FOG       39  39 100 SE5       30.02S VSB 1/8 WCI  36
ROCHESTER +    FOG       39 N/A N/A CALM      30.03S VSB 1/4
SOUTH BEND     CLOUDY    37  36  96 CALM      30.01R FOG
WARSAW +       FOG       36  36 100 CALM      30.03F VSB 1/4

$$

INZ006>009-017-018-025>027-211400-
NORTHEAST INDIANA

CITY           SKY/WX    TMP DP  RH WIND       PRES   REMARKS
AUBURN +       FOG      N/A N/A N/A CALM      30.06R VSB 1/4
FORT WAYNE     FOG       39  38  96 SE3       30.05S VSB 1/4
HUNTINGTON +   FOG       38  37  96 CALM      30.04S VSB 3/4
KENDALLVILLE + FOG       36  36 100 S6        30.04S VSB 1/4 WCI  31

$$

INZ028-029-035-036-043>045-051>053-211400-
WEST CENTRAL INDIANA

CITY           SKY/WX    TMP DP  RH WIND       PRES   REMARKS
CRAWFORDSVL +  FOG       40  40 100 S7        30.02F VSB 1/4 WCI  35
GREENCASTLE +  CLOUDY    45  43  93 S7        30.04S
LAFAYETTE      FOG       38  38 100 E3        30.02S VSB 1/4
TERRE HAUTE    CLOUDY    46  41  82 S9        30.04R

$$

INZ030>032-037>040-046>048-054>057-064-065-211400-
CENTRAL INDIANA

CITY           SKY/WX    TMP DP  RH WIND       PRES   REMARKS
COLUMBUS       CLOUDY    43  39  87 S8        30.07R
FISHERS *+     CLOUDY    41  41 100 S5        30.05
FRANKFORT +    FOG       43  42  97 SW6       30.04S VSB 1/2
GREENWOOD *+   CLOUDY   N/A N/A N/A S5        30.05S
INDIANAPOLIS   CLOUDY    41  41 100 SE6       30.05R FOG
-EAGLE CREEK   CLOUDY    42  41  96 CALM      30.03S FOG
MARION +       FOG       38  38 100 CALM      30.04S VSB 1/2
MT COMFORT *+  CLOUDY    41  41 100 S6        30.05S
SHELBYVILLE    NOT AVBL
ZIONSVILLE +   RAIN      40  40 100 S5        30.04S VSB 1/2 WCI  37

$$

INZ033-034-041-042-049-050-058-059-211400-
EAST CENTRAL INDIANA

CITY           SKY/WX    TMP DP  RH WIND       PRES   REMARKS
MUNCIE         CLOUDY    44  42  93 S7        30.05R FOG
RICHMOND +     CLOUDY    36  36 100 S8        30.08R WCI  29

$$

INZ060-061-067>069-081>083-085>088-211400-
SOUTHWEST INDIANA

CITY           SKY/WX    TMP DP  RH WIND       PRES   REMARKS
EVANSVILLE     CLOUDY    45  40  82 S3        30.09R
HUNTINGBURG +  CLOUDY    47  39  74 S8        30.10R
WASHINGTON +   CLOUDY    42  40  93 S8        30.07R

$$

INZ062-063-066-070>080-084-089>092-211400-
SOUTH CENTRAL AND SOUTHEAST INDIANA

CITY           SKY/WX    TMP DP  RH WIND       PRES   REMARKS
BATESVILLE *+    N/A    N/A N/A N/A MISG        N/A
BEDFORD +      CLOUDY    50  43  76 S8        30.07S
BLOOMINGTON    CLOUDY    49  44  83 SW9       30.06R
FRENCH LICK *+ CLOUDY    50  41  71 SW6       30.09S
MADISON *+     CLOUDY    46  37  71 S6        30.12S
NORTH VERNON + CLOUDY    45  39  81 S8        30.09R
SEYMOUR +      CLOUDY    46  39  76 S9        30.08S

$$





USA.gov is the U.S. government's official web portal to all federal, state and local government web resources and services.